Regional Weather Roundup
Issued by NWS Northern Indiana

Home | Current Version | Previous Version | Text Only | Print | Product List | Glossary Off
Versions: 1 2 3 4 5 6 7 8 9 10 11 12 13 14 15 16 17 18 19 20 21 22 23 24 25 26 27 28 29 30 31 32 33 34 35 36 37 38 39 40 41 42 43 44 45 46 47 48 49 50

000
ASUS43 KIWX 282210
RWRIWX

KIWX WEATHER ROUNDUP
NATIONAL WEATHER SERVICE NORTHERN INDIANA
600 PM EDT THU MAY 28 2015

NOTE: "FAIR" INDICATES FEW OR NO CLOUDS BELOW 12,000 FEET WITH NO
SIGNIFICANT WEATHER AND/OR OBSTRUCTIONS TO VISIBILITY.

* THESE STATIONS ARE NOT UNDER NWS QUALITY CONTROL. THEY ALSO MAY NOT
  REPORT WEATHER SUCH AS PRECIPITATION OR FOG.

INZ001>027-282300-
NORTHERN INDIANA

CITY           SKY/WX    TMP DP  RH WIND       PRES   REMARKS
GARY*          MOSUNNY   77  55  47 NE9       30.14F
VALPARAISO     MOSUNNY   82  55  39 S12       30.14F
MICHIGAN CITY* MOSUNNY   81  52  36 S7        30.15S
LAPORTE*       SUNNY     83  53  35 SE7G16    30.16F
KNOX*          SUNNY     81  52  36 SE13      30.14F
SOUTH BEND     SUNNY     82  54  37 SE13      30.17S
ELKHART*       SUNNY     81  54  39 S9        30.18S
GOSHEN         SUNNY     81  58  45 E12       30.17F
MONTICELLO*    MOSUNNY   82  58  43 S5        30.12F
LOGANSPORT*    MOSUNNY   81  46  30 SE6       30.14S
ROCHESTER*     SUNNY     82  57  42 SE7       30.15F
WARSAW*        SUNNY     79  59  50 SE9       30.16F
ANGOLA*        SUNNY     81  55  41 SE10      30.19S
FORT WAYNE     MOSUNNY   81  59  47 E12       30.16F
HUNTINGTON*    MOSUNNY   81  57  44 SE8       30.15F
PERU/GRISSOM   MOSUNNY   82  56  40 S8        30.13F
MARION*        MOSUNNY   83  51  32 S12       30.15F

$$
INZ028>050-282300-
CENTRAL INDIANA

CITY           SKY/WX    TMP DP  RH WIND       PRES   REMARKS
LAFAYETTE      MOSUNNY   81  55  40 SE6       30.11F
KOKOMO*        SUNNY     82  57  42 SE13      30.13F
MUNCIE*        MOSUNNY   84  56  38 S7        30.14F
INDIANAPOLIS   MOSUNNY   83  59  44 S10       30.12F

$$
MIZ043>046-050>051-056>058-064>065-071>073-077>080-282300-
SOUTHWEST LOWER MICHIGAN

CITY           SKY/WX    TMP DP  RH WIND       PRES   REMARKS
BATTLE CREEK   MOSUNNY   80  54  40 SE9       30.19F
BENTON HARBOR  SUNNY     81  54  39 SE7       30.15F
COLDWATER*     MOSUNNY   77  56  48 SE8       30.19F
HILLSDALE*     MOSUNNY   79  53  40 E9        30.21F
HOLLAND        MOSUNNY   79  60  52 W6        30.18F
GRAND RAPIDS   MOSUNNY   79  57  46 S9        30.18S
KALAMAZOO      MOSUNNY   80  53  39 SE6       30.18F
STURGIS*       MOSUNNY   81  55  41 SE8       30.18S
THREE RIVERS*  FAIR      80  53  37 SE9       30.17F

$$
OHZ001>008-015>018-024>025-282300-
NORTHWEST OHIO

CITY           SKY/WX    TMP DP  RH WIND       PRES   REMARKS
WAUSEON*       FAIR      79  55  44 E7G14     30.20S
DEFIANCE       MOSUNNY   81  54  39 E8        30.18F
FINDLAY        SUNNY     81  58  45 SE10      30.17F
TOLEDO EXPRESS SUNNY     77  55  46 E10       30.19F
TOLEDO METCALF SUNNY     75  53  46 NE9       30.21F
LIMA           SUNNY     81  59  47 SE8       30.17F

$$
AND FOR LAKE MICHIGAN COASTAL AND OPEN LAKE BUOY OBSERVATIONS

STATION/POSITION TEMP    WIND        PRES    VSBY  WAVE
                 AIR SEA DIR/SP/G                  HT/PER
                 (F)     (DEG/KT/KT) (MB)    (MI)  (FT/S)
CALUMET HARBOR    68      30/  6/  8   N/A
MICHIGAN CITY     62      20/ 13/ 14   N/A
BURNS HARBOR      64      70/ 11/ 13 1021.0F
SAINT JOSEPH      68     360/  9/ 12 1021.7F
SOUTH LAKE BUOY   58 39  100/  2/  4 1021.7F         0
4 MI NW BRIDGMAN  62 58   40/  8/ 10   N/A           1
MICHIGAN CITY     60 56   40/  4/  6   N/A           1

$$
&&


USA.gov is the U.S. government's official web portal to all federal, state and local government web resources and services.